EW0213 Colle Bisenzio Prato IT current weather conditions

sailwx.info

Wind from 012 at 8 knots

Air temperature 22.8° C
Dewpoint 14.9° C

Last reported at 2020-Aug-05 18:01 UTC.
Time now 2020-Aug-05 18:36 UTC

Location: N 43°59' E 011°08'.
View on Google Maps.

See reports from other nearby stations

  
Tides and Currents Weather Stations Pressure Air Temp Water Temp Dewpoint Dewpoint Depression Visibility Wind Speed Wind Dir Waves Ship Positions
date/time (UTC)wind fromknots sea level pressurealtimeterstation pressurevisibilityair tempwater tempwave heightnotes
2020-Aug-05 18:01 012 8 22.8
2020-Aug-05 17:55 008 7 22.8
2020-Aug-05 17:50 349 6 23.3
2020-Aug-05 17:45 014 5 23.3
2020-Aug-05 17:40 008 6 23.3
2020-Aug-05 17:35 013 6 23.3
2020-Aug-05 17:30 042 9 23.3
2020-Aug-05 17:25 011 8 23.3
2020-Aug-05 17:20 037 6 23.3
2020-Aug-05 17:15 016 6 23.3
2020-Aug-05 17:10 340 6 23.3
2020-Aug-05 17:05 018 9 23.3
2020-Aug-05 17:01 328 6 23.3
2020-Aug-05 16:55 326 6 23.3
2020-Aug-05 16:50 049 7 23.3
2020-Aug-05 16:45 355 8 23.3
2020-Aug-05 16:40 014 8 23.3
2020-Aug-05 16:35 348 8 23.9
2020-Aug-05 16:30 359 4 23.9
2020-Aug-05 16:25 018 7 23.9
2020-Aug-05 16:20 333 9 23.9
2020-Aug-05 16:15 328 9 23.9
2020-Aug-05 16:10 347 8 23.9
2020-Aug-05 16:05 338 6 23.9
2020-Aug-05 16:01 357 8 24.4
2020-Aug-05 15:55 339 7 24.4
2020-Aug-05 15:50 326 9 24.4
2020-Aug-05 15:45 340 7 24.4
2020-Aug-05 15:40 318 9 24.4
2020-Aug-05 15:35 358 8 24.4
2020-Aug-05 15:30 021 9 24.4
2020-Aug-05 15:25 357 6 24.4
2020-Aug-05 15:20 317 8 24.4
2020-Aug-05 15:15 012 8 24.4
2020-Aug-05 15:10 006 8 24.4
2020-Aug-05 15:05 020 6 24.4
2020-Aug-05 15:01 342 6 23.9
2020-Aug-05 14:55 358 8 23.9
2020-Aug-05 14:50 302 10 23.9
2020-Aug-05 14:45 019 9 23.9
2020-Aug-05 14:40 355 7 23.9
2020-Aug-05 14:35 356 7 23.9
2020-Aug-05 14:30 016 7 23.9
2020-Aug-05 14:25 021 8 23.9
2020-Aug-05 14:20 316 9 23.9
2020-Aug-05 14:15 045 7 24.4
2020-Aug-05 14:10 033 12 25.0
2020-Aug-05 14:05 348 11 25.0
2020-Aug-05 14:01 314 8 25.0
2020-Aug-05 13:55 338 7 24.4
2020-Aug-05 13:50 337 8 25.0
2020-Aug-05 13:45 008 13 25.0
2020-Aug-05 13:40 009 7 25.0
2020-Aug-05 13:35 006 6 24.4
2020-Aug-05 13:30 354 10 24.4
2020-Aug-05 13:25 354 9 24.4
2020-Aug-05 13:20 352 9 23.9
2020-Aug-05 13:15 072 10 24.4
2020-Aug-05 13:10 333 8 24.4
2020-Aug-05 13:05 008 10 24.4
2020-Aug-05 13:01 333 9 24.4
2020-Aug-05 12:55 037 8 24.4
2020-Aug-05 12:50 031 8 24.4
2020-Aug-05 12:45 008 11 24.4
2020-Aug-05 12:40 354 9 25.0
2020-Aug-05 12:35 001 10 24.4
2020-Aug-05 12:30 343 11 24.4
2020-Aug-05 12:25 024 12 25.0
2020-Aug-05 12:20 321 11 25.0
2020-Aug-05 12:15 001 13 25.0
2020-Aug-05 12:10 037 11 25.0
2020-Aug-05 12:05 360 12 25.0
2020-Aug-05 12:01 021 11 25.0
2020-Aug-05 11:55 021 13 25.0
2020-Aug-05 11:50 338 9 25.0
2020-Aug-05 11:45 015 11 25.0
2020-Aug-05 11:40 327 11 25.0
2020-Aug-05 11:35 346 10 25.0
2020-Aug-05 11:30 054 10 24.4
2020-Aug-05 11:25 019 12 24.4
2020-Aug-05 11:20 023 10 24.4
2020-Aug-05 11:15 333 7 24.4
2020-Aug-05 11:10 036 9 24.4
2020-Aug-05 11:05 021 10 24.4
2020-Aug-05 11:01 021 12 24.4
2020-Aug-05 10:55 015 8 23.9
2020-Aug-05 10:50 008 9 23.9
2020-Aug-05 10:45 342 9 23.9
2020-Aug-05 10:40 037 10 23.9
2020-Aug-05 10:35 316 9 23.3
2020-Aug-05 10:30 339 6 23.9
2020-Aug-05 10:25 354 6 23.9
2020-Aug-05 10:20 013 6 23.9
2020-Aug-05 10:15 015 5 23.9
2020-Aug-05 10:10 307 6 23.3
2020-Aug-05 10:05 011 8 23.3
2020-Aug-05 10:01 040 7 23.3
2020-Aug-05 09:55 347 9 23.9
2020-Aug-05 09:50 328 7 23.9
2020-Aug-05 09:45 021 6 23.3
2020-Aug-05 09:40 037 8 23.3
2020-Aug-05 09:35 033 8 23.9
2020-Aug-05 09:30 015 8 23.3
2020-Aug-05 09:25 354 8 23.3
2020-Aug-05 09:20 353 10 23.3
2020-Aug-05 09:15 314 6 23.3
2020-Aug-05 09:10 041 10 22.8
2020-Aug-05 09:05 342 7 23.3
2020-Aug-05 09:01 347 9 22.8
2020-Aug-05 08:55 019 7 22.8
2020-Aug-05 08:50 013 7 22.8
2020-Aug-05 08:45 025 9 22.2
2020-Aug-05 08:40 316 8 22.2
2020-Aug-05 08:35 018 7 22.2
2020-Aug-05 08:30 033 6 21.7
2020-Aug-05 08:25 318 8 21.7
2020-Aug-05 08:20 330 8 21.7
2020-Aug-05 08:15 347 10 21.7
2020-Aug-05 08:10 347 7 21.7
2020-Aug-05 08:05 013 7 21.7
2020-Aug-05 08:01 045 7 21.7
2020-Aug-05 07:55 330 6 21.7
2020-Aug-05 07:50 003 7 21.7
2020-Aug-05 07:45 008 7 21.7
2020-Aug-05 07:40 006 6 21.1
2020-Aug-05 07:35 015 5 21.1
2020-Aug-05 07:30 360 6 21.1
2020-Aug-05 07:25 064 4 21.1
2020-Aug-05 07:20 021 5 21.1
2020-Aug-05 07:15 017 4 20.6
2020-Aug-05 07:10 018 6 20.6
2020-Aug-05 07:05 024 6 20.6
2020-Aug-05 07:01 010 7 20.6
2020-Aug-05 06:55 030 3 20.6
2020-Aug-05 06:50 287 3 20.6
2020-Aug-05 06:45 006 6 20.6
2020-Aug-05 06:40 016 4 20.6
2020-Aug-05 06:35 032 5 20.6
2020-Aug-05 06:30 319 5 20.6
2020-Aug-05 06:25 025 7 20.6
2020-Aug-05 06:20 021 6 20.6
2020-Aug-05 06:15 021 4 20.6
2020-Aug-05 06:10 330 6 20.0
2020-Aug-05 06:05 043 5 20.0
2020-Aug-05 06:01 009 5 20.0
2020-Aug-05 05:55 046 3 20.0
2020-Aug-05 05:50 355 6 20.0
2020-Aug-05 05:45 066 7 20.0
2020-Aug-05 05:40 052 5 19.4
2020-Aug-05 05:35 060 6 19.4
2020-Aug-05 05:30 359 4 20.0
2020-Aug-05 05:25 005 4 20.0
2020-Aug-05 05:20 012 4 20.0
2020-Aug-05 05:15 037 284 20.0
2020-Aug-05 05:10
2020-Aug-05 05:05
2020-Aug-05 05:01
2020-Aug-05 04:56
2020-Aug-05 04:51
2020-Aug-05 04:45
2020-Aug-05 04:40
2020-Aug-05 04:36
2020-Aug-05 04:31
2020-Aug-05 04:26
2020-Aug-05 04:20
2020-Aug-05 04:15
2020-Aug-05 04:11
2020-Aug-05 04:06
2020-Aug-05 04:01
2020-Aug-05 03:55
2020-Aug-05 03:50
2020-Aug-05 03:46
2020-Aug-05 03:30
2020-Aug-05 03:25
2020-Aug-05 03:20
2020-Aug-05 03:11 022 5 18.9
2020-Aug-05 03:05 004 4 18.9
2020-Aug-05 03:01 340 5 19.4
2020-Aug-05 02:55 330 5 19.4
2020-Aug-05 02:50 338 7 19.4
2020-Aug-05 02:45 339 6 19.4
2020-Aug-05 02:40 019 5 19.4
2020-Aug-05 02:35 005 6 19.4
2020-Aug-05 02:30 014 2 19.4
2020-Aug-05 02:25 253 0 19.4
2020-Aug-05 02:20 030 3 20.0
2020-Aug-05 02:15 016 6 20.0
2020-Aug-05 02:10 328 6 19.4
2020-Aug-05 02:05 352 6 19.4
2020-Aug-05 02:01 051 2 19.4
2020-Aug-05 01:55 047 19.4
2020-Aug-05 01:50 010 0 19.4
2020-Aug-05 01:45 277 19.4
2020-Aug-05 01:40 024 0 19.4
2020-Aug-05 01:35 359 19.4
2020-Aug-05 01:31 318 3 19.4
2020-Aug-05 01:25 006 3 19.4
2020-Aug-05 01:20 062 2 19.4
2020-Aug-05 01:15 034 0 19.4
2020-Aug-05 01:10 042 3 19.4
2020-Aug-05 01:05 063 3 19.4
2020-Aug-05 01:01 040 2 19.4
2020-Aug-05 00:55 016 5 19.4
2020-Aug-05 00:50 060 2 19.4
2020-Aug-05 00:45 063 5 19.4
2020-Aug-05 00:40 293 0 19.4
2020-Aug-05 00:35 050 4 19.4
2020-Aug-05 00:30 019 3 19.4
2020-Aug-05 00:25 028 6 19.4
2020-Aug-05 00:20 353 7 20.0
2020-Aug-05 00:15 023 8 20.0
2020-Aug-05 00:10 027 7 20.0
2020-Aug-05 00:05 032 5 20.0
2020-Aug-05 00:01 011 4 20.0
2020-Aug-04 23:55 054 6 20.0
2020-Aug-04 23:50 006 4 20.0
2020-Aug-04 23:45 026 4 20.0
2020-Aug-04 23:40 008 4 20.0
2020-Aug-04 23:35 001 2 20.0
2020-Aug-04 23:30 022 4 20.0
2020-Aug-04 23:25 067 4 19.4
2020-Aug-04 23:20 072 3 18.9
2020-Aug-04 23:15 359 0 18.3
2020-Aug-04 23:10 098 18.3
2020-Aug-04 23:05 221 18.3
2020-Aug-04 23:01 147 18.3
2020-Aug-04 22:55 056 18.3
2020-Aug-04 22:50 005 0 18.3
2020-Aug-04 22:45 314 18.3
2020-Aug-04 22:40 013 2 18.3
2020-Aug-04 22:35 021 3 18.3
2020-Aug-04 22:30 012 1 18.3
2020-Aug-04 22:25 003 0 18.3
2020-Aug-04 22:20 360 1 18.3
2020-Aug-04 22:15 034 2 18.3
2020-Aug-04 22:10 013 2 18.9
2020-Aug-04 22:05 005 1 18.9
2020-Aug-04 22:01 004 2 18.9
2020-Aug-04 21:55 045 2 18.9
2020-Aug-04 21:50 021 3 18.9
2020-Aug-04 21:45 043 1 18.9
2020-Aug-04 21:40 001 2 18.3
2020-Aug-04 21:35 347 1 18.3
2020-Aug-04 21:30 054 18.3
2020-Aug-04 21:25 141 17.8
2020-Aug-04 21:20 141 17.8
2020-Aug-04 21:15 134 17.8
2020-Aug-04 21:10 021 17.8
2020-Aug-04 21:05 303 17.8
2020-Aug-04 21:01 028 17.8
2020-Aug-04 20:55 339 17.8
2020-Aug-04 20:50 021 17.8
2020-Aug-04 20:45 018 17.8
2020-Aug-04 20:40 356 0 17.8
2020-Aug-04 20:35 346 0 17.8
2020-Aug-04 20:30 003 0 18.3
2020-Aug-04 20:25 335 0 18.3
2020-Aug-04 20:20 006 0 18.3
2020-Aug-04 20:15 350 0 18.3
2020-Aug-04 20:10 338 1 18.9
2020-Aug-04 20:05 321 0 18.9
2020-Aug-04 20:01 342 1 18.9
2020-Aug-04 19:55 019 1 18.9
2020-Aug-04 19:50 304 0 19.4
2020-Aug-04 19:45 078 2 19.4
2020-Aug-04 19:40 027 0 19.4
2020-Aug-04 19:35 349 0 19.4
2020-Aug-04 19:30 021 1 19.4
2020-Aug-04 19:25 062 2 19.4
2020-Aug-04 19:20 056 1 19.4
2020-Aug-04 19:15 335 2 19.4
2020-Aug-04 19:10 043 2 19.4
2020-Aug-04 19:05 055 2 20.0
2020-Aug-04 19:01 027 3 19.4
2020-Aug-04 18:55 018 2 19.4
2020-Aug-04 18:50 024 4 20.0
2020-Aug-04 18:45 354 3 20.0
2020-Aug-04 18:40 038 4 20.0
2020-Aug-04 18:35 022 5 20.0
2020-Aug-04 18:30 027 3 20.0
2020-Aug-04 18:25 056 4 20.0
2020-Aug-04 18:20 049 2 20.0
2020-Aug-04 18:15 050 6 20.0
2020-Aug-04 18:10 014 5 20.0
2020-Aug-04 18:05 047 4 20.0
2020-Aug-04 18:01 056 5 20.0
2020-Aug-04 17:55 025 3 20.0
2020-Aug-04 17:50 034 6 20.0
2020-Aug-04 17:45 014 6 20.0
2020-Aug-04 17:40 323 6 20.6
2020-Aug-04 17:35 001 5 20.6
2020-Aug-04 17:30 034 6 20.6
2020-Aug-04 17:25 038 4 21.1
2020-Aug-04 17:20 035 6 21.1
2020-Aug-04 17:15 044 6 21.1
2020-Aug-04 17:10 021 9 21.1
2020-Aug-04 17:05 012 7 21.1
2020-Aug-04 17:01 341 6 21.1
2020-Aug-04 16:55 008 5 21.1
2020-Aug-04 16:50 302 5 21.1
2020-Aug-04 16:45 360 3 21.1
2020-Aug-04 16:40 019 3 21.1
2020-Aug-04 16:35 039 5 21.1
2020-Aug-04 16:30 019 6 21.1
2020-Aug-04 16:25 350 5 21.7
2020-Aug-04 16:20 031 4 21.7
2020-Aug-04 16:15 056 5 21.7
2020-Aug-04 16:10 031 7 21.7
2020-Aug-04 16:05 052 6 22.2
2020-Aug-04 16:01 351 4 22.2
2020-Aug-04 15:55 345 5 22.2
2020-Aug-04 15:50 012 7 22.8
2020-Aug-04 15:45 303 6 23.3
2020-Aug-04 15:40 304 6 23.3
2020-Aug-04 15:35 021 7 23.3
2020-Aug-04 15:30 015 8 23.9
2020-Aug-04 15:25 023 9 24.4
2020-Aug-04 15:20 061 6 24.4
2020-Aug-04 15:15 322 9 24.4
2020-Aug-04 15:10 353 7 24.4
2020-Aug-04 15:05 339 8 24.4
2020-Aug-04 15:01 021 5 24.4
2020-Aug-04 14:55 001 7 25.0
2020-Aug-04 14:50 026 6 24.4
2020-Aug-04 14:45 335 6 24.4
2020-Aug-04 14:40 016 5 24.4
2020-Aug-04 14:35 345 6 24.4
2020-Aug-04 14:30 349 9 24.4
2020-Aug-04 14:25 015 9 24.4
2020-Aug-04 14:20 001 6 25.0
2020-Aug-04 14:15 031 7 25.0
2020-Aug-04 14:10 352 3 24.4
2020-Aug-04 14:05 025 6 24.4
2020-Aug-04 14:01 035 6 24.4
2020-Aug-04 13:55 341 5 23.3
2020-Aug-04 13:50 044 6 23.3
2020-Aug-04 13:45 349 8 23.3
2020-Aug-04 13:40 031 5 23.9
2020-Aug-04 13:35 050 6 23.9
2020-Aug-04 13:30 001 6 23.9
2020-Aug-04 13:25 332 4 24.4
2020-Aug-04 13:20 346 6 24.4
2020-Aug-04 13:15 021 4 23.9
2020-Aug-04 13:10 326 6 23.9
2020-Aug-04 13:05 359 5 23.9
2020-Aug-04 13:01 011 5 23.3
2020-Aug-04 12:55 012 6 23.3
2020-Aug-04 12:50 354 6 23.3
2020-Aug-04 12:45 341 6 23.3
2020-Aug-04 12:40 068 7 23.3
2020-Aug-04 12:35 050 5 23.3
2020-Aug-04 12:30 338 4 23.3
2020-Aug-04 12:25 348 1 22.8
2020-Aug-04 12:20 082 3 22.8
2020-Aug-04 12:15 333 1 22.8
2020-Aug-04 12:10 055 0 22.2
2020-Aug-04 12:05 043 2 22.2
2020-Aug-04 12:01 012 2 21.7
2020-Aug-04 11:55 049 5 21.7
2020-Aug-04 11:50 339 6 21.7
2020-Aug-04 11:45 021 7 21.7
2020-Aug-04 11:40 041 6 21.7
2020-Aug-04 11:35 001 8 21.7
2020-Aug-04 11:30 015 8 21.7
2020-Aug-04 11:25 028 7 21.7
2020-Aug-04 11:20 333 6 22.2
2020-Aug-04 11:15 025 6 22.2
2020-Aug-04 11:10 056 3 22.2
2020-Aug-04 11:05 328 7 22.2
2020-Aug-04 11:01 017 6 22.2
2020-Aug-04 10:55 359 7 22.2
2020-Aug-04 10:50 050 7 22.8
2020-Aug-04 10:45 047 8 22.8
2020-Aug-04 10:40 006 5 22.8
2020-Aug-04 10:35 061 6 22.2
2020-Aug-04 10:30 037 8 22.2
2020-Aug-04 10:25 037 8 22.2
2020-Aug-04 10:20 049 8 22.2
2020-Aug-04 10:15 349 6 22.2
2020-Aug-04 10:10 061 10 22.2
2020-Aug-04 10:05 043 7 22.2
2020-Aug-04 10:01 032 7 22.2
2020-Aug-04 09:55 006 6 22.2
2020-Aug-04 09:50 047 7 22.2
2020-Aug-04 09:45 346 11 22.2
2020-Aug-04 09:40 042 11 22.8
2020-Aug-04 09:35 044 9 22.8
2020-Aug-04 09:30 015 9 23.3
2020-Aug-04 09:25 016 11 23.3
2020-Aug-04 09:20 069 7 23.3
2020-Aug-04 09:15 011 7 23.3
2020-Aug-04 09:10 084 6 23.3
2020-Aug-04 09:05 027 6 23.3
2020-Aug-04 09:01 041 7 23.3
2020-Aug-04 08:55 033 7 23.3
2020-Aug-04 08:50 049 6 22.8
2020-Aug-04 08:45 093 3 22.8
2020-Aug-04 08:40 025 4 22.2
2020-Aug-04 08:35 348 3 22.2
2020-Aug-04 08:30 044 1 22.2
2020-Aug-04 08:25 017 2 22.2
2020-Aug-04 08:20 030 2 21.7
2020-Aug-04 08:15 022 3 21.7
2020-Aug-04 08:10 022 3 21.7
2020-Aug-04 08:05 026 3 21.7
2020-Aug-04 08:01 033 4 21.7
2020-Aug-04 07:55 335 4 21.7
2020-Aug-04 07:50 026 3 21.7
2020-Aug-04 07:45 018 3 21.7
2020-Aug-04 07:40 044 1 21.7
2020-Aug-04 07:35 058 2 21.1
2020-Aug-04 07:30 043 1 21.1
2020-Aug-04 07:25 058 2 21.1
2020-Aug-04 07:20 025 3 21.1
2020-Aug-04 07:15 018 2 21.1
2020-Aug-04 07:10 028 2 21.1
2020-Aug-04 07:05 027 2 21.1
2020-Aug-04 07:01 009 3 21.1
2020-Aug-04 06:55 030 1 21.1
2020-Aug-04 06:50 025 1 21.1
2020-Aug-04 06:45 011 0 21.1
2020-Aug-04 06:40 029 1 21.1
2020-Aug-04 06:35 031 2 21.1
2020-Aug-04 06:30 063 1 21.1
2020-Aug-04 06:25 062 0 20.6
2020-Aug-04 06:20 022 1 20.0
2020-Aug-04 06:16 076 1 19.4
2020-Aug-04 06:10 053 0 19.4
2020-Aug-04 06:05 060 0 18.9
2020-Aug-04 06:01 053 2 18.9
2020-Aug-04 05:55 056 1 18.9
2020-Aug-04 05:50 048 1 18.9
2020-Aug-04 05:45 056 1 18.3
2020-Aug-04 05:40 031 1 18.3
2020-Aug-04 05:35 349 0 18.3
2020-Aug-04 05:30 310 0 18.3
2020-Aug-04 05:25 117 18.3
2020-Aug-04 05:20 008 0 17.8
2020-Aug-04 05:15 021 0 17.8
2020-Aug-04 05:10 309 17.8
2020-Aug-04 05:05 301 17.8
2020-Aug-04 05:01 295 0 17.8
2020-Aug-04 04:56
2020-Aug-04 04:50
2020-Aug-04 04:45
2020-Aug-04 04:40
2020-Aug-04 04:36
2020-Aug-04 04:31
2020-Aug-04 04:25
2020-Aug-04 04:20
2020-Aug-04 04:15
2020-Aug-04 04:11
2020-Aug-04 04:06
2020-Aug-04 04:01
2020-Aug-04 03:55
2020-Aug-04 03:50
2020-Aug-04 03:41
2020-Aug-04 03:35
2020-Aug-04 03:30
2020-Aug-04 03:25
2020-Aug-04 03:10 323 0 20.0
2020-Aug-04 03:05 054 20.0
2020-Aug-04 03:01 020 20.0
2020-Aug-04 02:55 345 1 20.0
2020-Aug-04 02:50 057 2 20.0
2020-Aug-04 02:45 019 3 20.0
2020-Aug-04 02:40 024 3 20.0
2020-Aug-04 02:35 008 1 20.0
2020-Aug-04 02:31 341 1 20.0
2020-Aug-04 02:25 015 1 20.0
2020-Aug-04 02:20 027 20.0
2020-Aug-04 02:15 346 1 20.0
2020-Aug-04 02:10 027 1 20.0
2020-Aug-04 02:05 018 2 20.0
2020-Aug-04 02:01 019 2 20.0
2020-Aug-04 01:55 321 0 20.6
2020-Aug-04 01:50 340 0 20.6
2020-Aug-04 01:45 308 20.6
2020-Aug-04 01:40 036 20.6
2020-Aug-04 01:35 008 0 20.6
2020-Aug-04 01:30 278 0 20.6
2020-Aug-04 01:25 063 20.6
2020-Aug-04 01:20 005 2 20.6
2020-Aug-04 01:15 004 0 21.1
2020-Aug-04 01:10 057 0 20.6
2020-Aug-04 01:05 307 20.6
2020-Aug-04 01:01 354 20.6
2020-Aug-04 00:55 018 20.6
2020-Aug-04 00:50 009 0 20.6
2020-Aug-04 00:45 325 20.6
2020-Aug-04 00:40 062 20.6
2020-Aug-04 00:35 021 0 20.6
2020-Aug-04 00:30 009 2 20.6
2020-Aug-04 00:25 014 3 20.6
2020-Aug-04 00:20 316 0 20.6
2020-Aug-04 00:15 314 0 21.1
2020-Aug-04 00:10 056 2 20.6
2020-Aug-04 00:05 001 1 20.6
2020-Aug-04 00:01 354 1 20.6
2020-Aug-03 23:50 012 0 20.6
2020-Aug-03 23:45 009 0 20.6
2020-Aug-03 23:40 340 0 20.6
2020-Aug-03 23:35 321 20.6
2020-Aug-03 23:30 357 0 20.6
2020-Aug-03 23:25 044 0 20.6
2020-Aug-03 23:20 004 0 20.6
2020-Aug-03 23:15 315 0 20.6
2020-Aug-03 23:10 028 0 20.6
2020-Aug-03 23:05 316 20.6
2020-Aug-03 23:01 037 20.6
2020-Aug-03 22:55 014 1 21.1
2020-Aug-03 22:50 027 1 21.1
2020-Aug-03 22:45 012 2 21.1
2020-Aug-03 22:40 026 0 21.1
2020-Aug-03 22:35 043 0 21.1
2020-Aug-03 22:30 348 1 21.1
2020-Aug-03 22:25 346 2 21.1
2020-Aug-03 22:20 029 0 21.1
2020-Aug-03 22:15 343 0 21.1
2020-Aug-03 22:10 011 0 21.1
2020-Aug-03 22:06 355 0 21.1
2020-Aug-03 22:01 013 1 21.7
2020-Aug-03 21:55 317 21.7
2020-Aug-03 21:50 104 21.7
2020-Aug-03 21:45 108 0 21.7
2020-Aug-03 21:40 113 1 21.7
2020-Aug-03 21:35 108 1 21.7
2020-Aug-03 21:30 095 1 22.2
2020-Aug-03 21:25 153 3 22.2
2020-Aug-03 21:20 139 4 22.2
2020-Aug-03 21:15 164 4 22.2
2020-Aug-03 21:10 129 2 22.2
2020-Aug-03 21:05 120 2 22.2
2020-Aug-03 21:01 134 4 22.2
2020-Aug-03 20:55 137 3 22.2
2020-Aug-03 20:50 105 2 22.2
2020-Aug-03 20:45 108 3 22.2
2020-Aug-03 20:40 174 3 22.2
2020-Aug-03 20:35 169 3 22.2
2020-Aug-03 20:30 169 2 22.2
2020-Aug-03 20:25 145 3 22.8
2020-Aug-03 20:20 156 3 22.8
2020-Aug-03 20:15 205 3 22.8
2020-Aug-03 20:10 127 4 22.8
2020-Aug-03 20:05 134 3 22.8
2020-Aug-03 20:01 133 6 22.8
2020-Aug-03 19:55 159 3 22.8
2020-Aug-03 19:50 147 0 22.8
2020-Aug-03 19:45 124 0 22.8
2020-Aug-03 19:40 106 1 22.8
2020-Aug-03 19:35 150 2 22.8
2020-Aug-03 19:30 085 22.8
2020-Aug-03 19:25 131 4 22.8
2020-Aug-03 19:20 141 1 22.8
2020-Aug-03 19:15 149 4 22.8
2020-Aug-03 19:10 156 7 23.3
2020-Aug-03 19:05 129 4 23.3
2020-Aug-03 19:01 143 6 23.3
2020-Aug-03 18:55 155 5 23.3
2020-Aug-03 18:50 136 5 23.3
2020-Aug-03 18:45 163 3 23.3
2020-Aug-03 18:40 143 3 23.3
2020-Aug-03 18:35 201 3 23.3
2020-Aug-03 18:30 128 3 23.3
2020-Aug-03 18:25 124 4 23.3
2020-Aug-03 18:20 162 4 23.3
2020-Aug-03 18:15 147 1 23.3
2020-Aug-03 18:10 117 2 23.9
2020-Aug-03 18:05 166 2 23.9
2020-Aug-03 18:01 136 3 23.9